Barrow, AK

6:49 AM AKDT on March 27, 2017 (GMT -0800)
Wiley Post-Will Rogers Memorial

Weather History for PABR - January, 2014

Change the Weather History Date:

Thursday, January 16, 2014

  Actual Average Record
Temperature  
Mean Temperature -32 °F -14 °F  
Max Temperature -26 °F -8 °F 32 °F (1957)
Min Temperature -38 °F -20 °F -52 °F (1980)
Degree Days  
Heating Degree Days 97 79  
Month to date heating degree days 1213 1244  
Since 1 July heating degree days 8659 9453  
Cooling Degree Days 0 0  
Month to date cooling degree days 0 0  
Year to date cooling degree days 0 0  
Moisture  
Dew Point -35 °F    
Average Humidity 0    
Maximum Humidity 0    
Minimum Humidity 0    
Precipitation  
Precipitation 0.00 in 0.00 in 0.17 in (1929)
Month to date precipitation 0.03 0.07  
Year to date precipitation 0.03 0.07  
Snow  
Snow 0.00 in 0.10 in 1.30 in (1929)
Month to date snowfall 0.6 1.4  
Since 1 July snowfall 37.6 25.2  
Snow Depth 8.00 in    
Sea Level Pressure  
Sea Level Pressure 30.13 in    
Wind  
Wind Speed 6 mph (WNW)    
Max Wind Speed 10 mph    
Max Gust Speed 11 mph    
Visibility 10 miles    
Events      
T = Trace of Precipitation, MM = Missing Value Source: NWS Daily Summary

Daily Weather History Graph

Daily Weather History Graph

Search for Another Location

Airport or City:

Trip Planner

Search our weather history database for the weather conditions in past years. The results will help you decide how hot, cold, wet, or windy it might be!

Date:

Astronomy

Jan. 16, 2014 Rise Set
Actual Time 1:04 PM AKST 2:09 PM AKST
Civil Twilight 11:00 AM AKST 4:14 PM AKST
Nautical Twilight 9:18 AM AKST 5:55 PM AKST
Astronomical Twilight 7:58 AM AKST 7:16 PM AKST
Moon 5:06 PM AKST (1/16) 11:17 AM AKST (1/16)
Length of Visible Light 5h 14m
Length of Day
1h 04m
Full, 100% of the Moon is Illuminated
Jan 16
Full
Jan 23
Last Quarter
Jan 30
New
Feb 6
First Quarter
Feb 14
Full

Hourly Weather History & Observations

Time (AKST) Temp. Windchill Dew Point Humidity Pressure Visibility Wind Dir Wind Speed Gust Speed Precip Events Conditions
12:53 AM -29.9 °F -44.8 °F - N/A% 30.05 in 10.0 mi WSW 4.6 mph - N/A   Clear
1:53 AM -36.0 °F -58.1 °F - N/A% 30.06 in 10.0 mi SSW 8.1 mph - N/A   Clear
2:53 AM -31.0 °F -51.9 °F - N/A% 30.06 in 10.0 mi WSW 8.1 mph - N/A   Clear
3:53 AM -29.9 °F -47.1 °F - N/A% 30.05 in 10.0 mi West 5.8 mph - N/A   Clear
4:53 AM -34.1 °F -49.7 °F - N/A% 30.06 in 10.0 mi WSW 4.6 mph - N/A   Clear
5:53 AM -31.0 °F -48.4 °F - N/A% 30.05 in 10.0 mi West 5.8 mph - N/A   Clear
6:53 AM -29.9 °F -47.1 °F - N/A% 30.05 in 10.0 mi West 5.8 mph - N/A   Clear
7:53 AM -29.0 °F -43.8 °F -35.0 °F 73% 30.04 in 10.0 mi West 4.6 mph - N/A   Clear
8:53 AM -27.0 °F -41.5 °F -32.1 °F 77% 30.04 in 10.0 mi NW 4.6 mph - N/A   Clear
9:53 AM -32.1 °F -47.3 °F - N/A% 30.05 in 10.0 mi WNW 4.6 mph - N/A   Clear
10:53 AM -32.1 °F - - N/A% 30.07 in 10.0 mi Calm Calm - N/A   Clear
11:53 AM -29.0 °F -46.0 °F -35.0 °F 73% 30.09 in 10.0 mi NW 5.8 mph - N/A   Clear
12:53 PM -27.9 °F -39.8 °F -34.1 °F 73% 30.10 in 10.0 mi NW 3.5 mph - N/A   Clear
1:53 PM -29.0 °F -46.0 °F -34.1 °F 77% 30.12 in 10.0 mi NNW 5.8 mph - N/A   Clear
2:53 PM -29.0 °F -46.0 °F -35.0 °F 73% 30.15 in 10.0 mi NW 5.8 mph - N/A   Clear
3:53 PM -29.0 °F -47.9 °F -35.0 °F 73% 30.15 in 10.0 mi NW 6.9 mph - N/A   Clear
4:53 PM -29.0 °F -47.9 °F -35.0 °F 73% 30.17 in 10.0 mi NW 6.9 mph - N/A   Clear
5:53 PM -29.0 °F -49.5 °F -36.0 °F 69% 30.18 in 10.0 mi NW 8.1 mph - N/A   Clear
6:53 PM -29.9 °F -49.0 °F - N/A% 30.20 in 10.0 mi WNW 6.9 mph - N/A   Clear
7:53 PM -33.0 °F -52.7 °F - N/A% 30.23 in 10.0 mi WNW 6.9 mph - N/A   Clear
8:53 PM -32.1 °F -47.3 °F - N/A% 30.26 in 10.0 mi West 4.6 mph - N/A   Clear
9:53 PM -33.0 °F -52.7 °F - N/A% 30.28 in 10.0 mi WNW 6.9 mph - N/A   Clear
10:53 PM -33.0 °F -50.7 °F - N/A% 30.30 in 10.0 mi WNW 5.8 mph - N/A   Clear
11:53 PM -34.1 °F -49.7 °F - N/A% 30.32 in 10.0 mi WSW 4.6 mph - N/A   Clear